STARLINK-11150, 60406

Orbit data source: Space-Track

STARLINK-11150, 60406 is a payload satellite owned by SpaceX/Seattle (US) in LEO that was launched on Sat, 10 Aug 2024 UTC via an FALCON 9 launch vehicle from the Air Force Eastern Test Range (AFETR). Payloads include a variety of satellites, spacecraft, and rockets equipped with specific instruments for various scientific and technological missions. These include communications satellites like Starlink; space stations such as the ISS; scientific satellites like the Hubble; Earth observation satellites from companies like Planet Labs, Umbra, and HawkEye 360; GPS; miniature CubeSats for education and research; and military/defense satellites.

Loading next visibility...
STARLINK-11150 details
Identifier
60406, 2024-141J
Orbit
LEO
Last TLE update5 hours ago
Origin
Flag of USSpaceX/Seattle (US)
ManufacturerSpaceX/Seattle
MissionOperational spacecraft
Bus & MotorSTARLINK V2M, Unknown motor
Mass730 kg wet, ~700 kg dry
Launch date (UTC)
2024-08-10 (5 months ago)
Launch vehicle
FALCON 9
Launch site
Air Force Eastern Test Range (AFETR)
Object type
Payload
Rocket body
Debris
Shape & HBRUnknown
Radar Cross SectionLarge (>1 m²)

Expand to show TLE details & history

TLE from 5 hours ago
0 STARLINK-11150
1 60406U 24141J   25015.08461518 -.00003322  00000-0 -22587-4 0  9994
2 60406  53.1595 350.0273 0001359  71.0697 289.0469 15.69692781 25991
Epoch: 2025-01-15T02:01Z
Definitive object data (Epoch: 2025-01-15T02:01:50.751Z)
Latitude0.00005°
Longitude-155.21616°
Altitude360.392 km
Speed7.694 km/s
True Right ascension23h 20m 06s
True Declination0° 00' 00"
Sunlit
Object was in daylight at TLE epoch
Visualization TLE readout
Latitude14.44048°
Longitude12.64055°
Altitude359.961 km
Speed7.696 km/s
Apparent Right ascension13h 45m 45s
Apparent Declination-30° 33' 24"
Sunlit
Object is in full shadow
Visualization observer readout
Local Sidereal Time07:57:36
Azimuth115.95° SE
Elevation-16.981°
Doppler factor1
Orbital elements
Apogee altitude360.953 km
Perigee altitude359.121 km
Semi-major axis6,738.174 km
Eccentricity0.0001359
Inclination53.1595°
RAAN350.0273°
Arg. of periapsis71.0697°
True anomaly289.03218°
Mean anomaly289.0469°
Eccentric anomaly289.03954°
Mean motion3.92401 °/min
BSTAR-0.000022587
Orbital period91.74 mins
Loading maneuver chart data...
Loading historical data...
Loading historical data...
Loading historical data...
Loading historical data...
Loading historical data...
Loading historical data...
Loading historical data...

STARLINK-11150 Visibility forecast

Observer location: undefined°, undefined

Span
Click to sort rows by Start time (UTC) header in descending order
Start Az.
Max El. time (UTC)
Max El. Az.
Max El.
End time (UTC)
End Az.
4 mins2025-01-15 08:40:05.274Z284.529° WNW2025-01-15 08:42:05.274Z236.534° WSW24.37°2025-01-15 08:44:05.274Z176.287° S
4 mins2025-01-16 01:10:05.274Z256.242° W2025-01-16 01:11:05.274Z299.006° NW38.599°2025-01-16 01:14:05.274Z41.882° NE
|